Location: Home
(42.5358°N, 72.7383°W)
Time: 16:58:06
(UTC-05:00)

Tiros 1 - Pass Details

Date: 04 December 2021
Orbit: 629 x 664 km, 48.4° (Epoch: 18 January)

Event Time Altitude Azimuth Distance (km) Brightness Sun altitude
Rises 20:20:10 0° 275° (W) 2,929 11.3 -43.8°
Enters shadow 20:21:40 - 279° (W) 2,364 10.7 -44.1°
Reaches altitude 10° 20:22:35 10° 283° (WNW) 2,026 - -44.3°
Maximum altitude 20:27:01 41° 354° (N) 930 - -45.1°
Drops below altitude 10° 20:31:30 10° 65° (ENE) 2,049 - -45.9°
Sets 20:33:58 0° 73° (ENE) 2,966 - -46.3°
